• Em Portugal
  • Lista de países
  • Para 7 dias
  • Temperatura da água
  • Mapas de satélite
  • Mapa do tempo
  • Widgets de tempo
  • user-avatar
    Iniciar Sessão

    Previsão horária em Bihać

    Hoje, 25 Setembro, Terça-feira

    Tempo Temperatura Precipitação Vento Pressão Humidade
    00:00 +4°C° 0 mm 6 m/s 719 mmHg 75%
    01:00 +4°C° 0 mm 6 m/s 719 mmHg 75%
    02:00 +4°C° 0 mm 6 m/s 719 mmHg 74%
    03:00 +4°C° 0 mm 6 m/s 719 mmHg 74%
    04:00 +4°C° 0 mm 6 m/s 719 mmHg 73%
    05:00 +4°C° 0 mm 6 m/s 720 mmHg 71%
    06:00 +4°C° 0 mm 6 m/s 720 mmHg 70%
    07:00 +5°C° 0 mm 6 m/s 720 mmHg 68%
    08:00 +7°C° 0 mm 6 m/s 721 mmHg 62%
    09:00 +9°C° 0 mm 7 m/s 721 mmHg 55%
    10:00 +10°C° 0 mm 7 m/s 721 mmHg 49%
    11:00 +10°C° 0 mm 7 m/s 721 mmHg 46%
    12:00 +11°C° 0 mm 7 m/s 722 mmHg 44%
    13:00 +11°C° 0 mm 7 m/s 722 mmHg 41%
    14:00 +11°C° 0 mm 7 m/s 721 mmHg 41%
    15:00 +11°C° 0 mm 7 m/s 721 mmHg 41%
    16:00 +10°C° 0 mm 6 m/s 721 mmHg 42%
    17:00 +9°C° 0 mm 6 m/s 721 mmHg 46%
    18:00 +7°C° 0 mm 6 m/s 722 mmHg 50%
    19:00 +6°C° 0 mm 5 m/s 722 mmHg 54%
    20:00 +5°C° 0 mm 5 m/s 722 mmHg 56%
    21:00 +5°C° 0 mm 5 m/s 723 mmHg 57%
    22:00 +3°C° 0 mm 5 m/s 723 mmHg 59%
    23:00 +3°C° 0 mm 5 m/s 723 mmHg 62%

    Amanhã, 26 Setembro, Quarta-feira

    Tempo Temperatura Precipitação Vento Pressão Humidade
    00:00 +3°C° 0 mm 4 m/s 723 mmHg 65%
    01:00 +3°C° 0 mm 4 m/s 723 mmHg 67%
    02:00 +1°C° 0 mm 4 m/s 723 mmHg 70%
    03:00 +1°C° 0 mm 4 m/s 723 mmHg 72%
    04:00 0°C° 0 mm 4 m/s 723 mmHg 75%
    05:00 +1°C° 0 mm 4 m/s 723 mmHg 74%
    06:00 +2°C° 0 mm 3 m/s 723 mmHg 74%
    07:00 +2°C° 0 mm 3 m/s 723 mmHg 73%
    08:00 +5°C° 0 mm 3 m/s 724 mmHg 64%
    09:00 +7°C° 0 mm 4 m/s 724 mmHg 55%
    10:00 +10°C° 0 mm 4 m/s 725 mmHg 46%
    11:00 +11°C° 0 mm 3 m/s 724 mmHg 43%
    12:00 +13°C° 0 mm 3 m/s 724 mmHg 40%
    13:00 +14°C° 0 mm 3 m/s 724 mmHg 37%
    14:00 +14°C° 0 mm 3 m/s 724 mmHg 39%
    15:00 +14°C° 0 mm 2 m/s 723 mmHg 40%
    16:00 +14°C° 0 mm 2 m/s 723 mmHg 41%
    17:00 +12°C° 0 mm 2 m/s 723 mmHg 49%
    18:00 +9°C° 0 mm 2 m/s 722 mmHg 57%
    19:00 +7°C° 0 mm 2 m/s 722 mmHg 66%
    20:00 +6°C° 0 mm 2 m/s 722 mmHg 66%
    21:00 +6°C° 0 mm 2 m/s 722 mmHg 66%
    22:00 +5°C° 0 mm 2 m/s 722 mmHg 67%
    23:00 +5°C° 0 mm 2 m/s 722 mmHg 66%

    Depois de amanhã, 27 Setembro, Quinta-feira

    Tempo Temperatura Precipitação Vento Pressão Humidade
    00:00 +5°C° 0 mm 2 m/s 722 mmHg 64%
    01:00 +4°C° 0 mm 2 m/s 722 mmHg 63%
    02:00 +4°C° 0 mm 2 m/s 721 mmHg 61%
    03:00 +4°C° 0 mm 2 m/s 721 mmHg 60%
    04:00 +4°C° 0 mm 2 m/s 721 mmHg 58%
    05:00 +5°C° 0 mm 2 m/s 721 mmHg 56%
    06:00 +6°C° 0 mm 2 m/s 721 mmHg 54%
    07:00 +7°C° 0 mm 2 m/s 721 mmHg 51%
    08:00 +9°C° 0 mm 2 m/s 721 mmHg 45%
    09:00 +13°C° 0 mm 2 m/s 721 mmHg 39%
    10:00 +16°C° 0 mm 2 m/s 721 mmHg 33%
    11:00 +17°C° 0 mm 2 m/s 721 mmHg 32%
    12:00 +18°C° 0 mm 2 m/s 721 mmHg 30%
    13:00 +19°C° 0 mm 2 m/s 721 mmHg 28%
    14:00 +19°C° 0 mm 2 m/s 720 mmHg 32%
    15:00 +19°C° 0 mm 2 m/s 719 mmHg 35%
    16:00 +18°C° 0 mm 3 m/s 719 mmHg 38%
    17:00 +16°C° 0 mm 3 m/s 718 mmHg 44%
    18:00 +12°C° 0 mm 3 m/s 718 mmHg 50%
    19:00 +10°C° 0 mm 3 m/s 717 mmHg 56%
    20:00 +9°C° 0 mm 3 m/s 717 mmHg 56%
    21:00 +9°C° 0 mm 3 m/s 717 mmHg 55%
    22:00 +8°C° 0 mm 3 m/s 717 mmHg 55%
    23:00 +8°C° 0 mm 3 m/s 716 mmHg 55%

    28 Setembro, Sexta-feira

    Tempo Temperatura Precipitação Vento Pressão Humidade
    00:00 +8°C° 0 mm 3 m/s 716 mmHg 55%
    01:00 +8°C° 0 mm 3 m/s 715 mmHg 54%
    02:00 +7°C° 0 mm 3 m/s 715 mmHg 54%
    03:00 +7°C° 0 mm 3 m/s 715 mmHg 54%
    04:00 +7°C° 0 mm 3 m/s 714 mmHg 53%
    05:00 +8°C° 0 mm 2 m/s 714 mmHg 53%
    06:00 +8°C° 0 mm 2 m/s 714 mmHg 53%
    07:00 +9°C° 0 mm 2 m/s 714 mmHg 53%
    08:00 +12°C° 0 mm 2 m/s 714 mmHg 48%
    09:00 +15°C° 0 mm 2 m/s 714 mmHg 44%
    10:00 +17°C° 0 mm 2 m/s 714 mmHg 39%
    11:00 +18°C° 0 mm 2 m/s 714 mmHg 39%
    12:00 +19°C° 0 mm 2 m/s 713 mmHg 38%
    13:00 +21°C° 0 mm 2 m/s 713 mmHg 37%
    14:00 +20°C° 0 mm 2 m/s 713 mmHg 40%
    15:00 +20°C° 0 mm 2 m/s 712 mmHg 43%
    16:00 +19°C° 0 mm 3 m/s 712 mmHg 45%
    17:00 +17°C° 0 mm 3 m/s 712 mmHg 52%
    18:00 +15°C° 0 mm 2 m/s 711 mmHg 58%
    19:00 +12°C° 0 mm 2 m/s 711 mmHg 65%
    20:00 +12°C° 0 mm 2 m/s 711 mmHg 65%
    21:00 +10°C° 0 mm 3 m/s 711 mmHg 65%
    22:00 +10°C° 0 mm 3 m/s 711 mmHg 65%
    23:00 +10°C° 0 mm 3 m/s 711 mmHg 66%

    29 Setembro, Sábado

    Tempo Temperatura Precipitação Vento Pressão Humidade
    00:00 +9°C° 0 mm 3 m/s 711 mmHg 66%
    01:00 +9°C° 0 mm 2 m/s 711 mmHg 67%
    02:00 +9°C° 0 mm 2 m/s 711 mmHg 67%
    03:00 +9°C° 0 mm 2 m/s 711 mmHg 67%
    04:00 +8°C° 0 mm 2 m/s 711 mmHg 67%
    05:00 +9°C° 0 mm 3 m/s 711 mmHg 67%
    06:00 +9°C° 0 mm 3 m/s 711 mmHg 67%
    07:00 +10°C° 0 mm 3 m/s 711 mmHg 66%
    08:00 +12°C° 0 mm 3 m/s 712 mmHg 60%
    09:00 +14°C° 0 mm 3 m/s 712 mmHg 53%
    10:00 +18°C° 0 mm 4 m/s 713 mmHg 47%
    11:00 +18°C° 0 mm 4 m/s 713 mmHg 47%
    12:00 +19°C° 0 mm 4 m/s 713 mmHg 47%
    13:00 +19°C° 0 mm 4 m/s 713 mmHg 47%
    14:00 +19°C° 0 mm 4 m/s 713 mmHg 51%
    15:00 +18°C° 0 mm 4 m/s 713 mmHg 54%
    16:00 +18°C° 0 mm 4 m/s 713 mmHg 58%
    17:00 +15°C° 0 mm 4 m/s 713 mmHg 64%
    18:00 +14°C° 0 mm 4 m/s 713 mmHg 69%
    19:00 +13°C° 0 mm 4 m/s 713 mmHg 75%
    20:00 +12°C° 0 mm 4 m/s 713 mmHg 76%
    21:00 +11°C° 0 mm 4 m/s 714 mmHg 77%
    22:00 +11°C° 0 mm 4 m/s 714 mmHg 78%
    23:00 +10°C° 0 mm 4 m/s 714 mmHg 78%

    30 Setembro, Domingo

    Tempo Temperatura Precipitação Vento Pressão Humidade
    00:00 +10°C° 0 mm 4 m/s 714 mmHg 78%
    01:00 +8°C° 0 mm 4 m/s 713 mmHg 78%
    02:00 +8°C° 0 mm 4 m/s 713 mmHg 78%
    03:00 +7°C° 0 mm 4 m/s 713 mmHg 79%
    04:00 +7°C° 0 mm 3 m/s 713 mmHg 79%
    05:00 +8°C° 0 mm 3 m/s 713 mmHg 78%
    06:00 +8°C° 0 mm 3 m/s 713 mmHg 77%
    07:00 +8°C° 0 mm 3 m/s 713 mmHg 77%
    08:00 +10°C° 0 mm 3 m/s 714 mmHg 69%
    09:00 +14°C° 0 mm 2 m/s 714 mmHg 62%
    10:00 +16°C° 0 mm 2 m/s 714 mmHg 55%
    11:00 +18°C° 0 mm 2 m/s 714 mmHg 51%
    12:00 +20°C° 0 mm 1 m/s 714 mmHg 48%
    13:00 +22°C° 0 mm 1 m/s 714 mmHg 45%
    14:00 +21°C° 0 mm 1 m/s 714 mmHg 47%
    15:00 +21°C° 0 mm 1 m/s 713 mmHg 50%
    16:00 +20°C° 0 mm 1 m/s 713 mmHg 52%
    17:00 +18°C° 0 mm 1 m/s 713 mmHg 61%
    18:00 +15°C° 0 mm 1 m/s 713 mmHg 69%
    19:00 +13°C° 0 mm 1 m/s 713 mmHg 78%
    20:00 +12°C° 0 mm 1 m/s 713 mmHg 79%
    21:00 +12°C° 0 mm 1 m/s 713 mmHg 81%
    22:00 +11°C° 0 mm 1 m/s 713 mmHg 82%
    23:00 +11°C° 0 mm 1 m/s 713 mmHg 83%
    Mostrar mais